Regional Weather Roundup
Issued by NWS Green Bay, WI

Home | Current Version | Previous Version | Text Only | Print | Product List | Glossary On
Versions: 1 2 3 4 5 6 7 8 9 10 11 12 13 14 15 16 17 18 19 20 21 22 23 24 25 26 27 28 29 30 31 32 33 34 35 36 37 38 39 40 41 42 43 44 45 46 47 48 49 50
000
ASUS43 KGRB 051310
RWRGRB

NORTH-CENTRAL AND NORTHEAST WISCONSIN REGIONAL WEATHER ROUNDUP
NATIONAL WEATHER SERVICE GREEN BAY WI
800 AM CDT TUE MAY 05 2015

WIZ005-009-010>012-018-019-051400-
NORTH CENTRAL WISCONSIN

CITY           SKY/WX    TMP DP  RH WIND       PRES   REMARKS
IRONWOOD       SUNNY     54  37  54 CALM      30.28S
MANITOWISH WTR SUNNY     51  35  55 SE3       30.31S
ARBOR VITAE    SUNNY     53  32  45 SE8       30.31R
EAGLE RIVER    SUNNY     52  32  45 SE5       30.32R
LAND O LAKES   SUNNY     49  38  65 CALM      30.33S
RHINELANDER    SUNNY     50  33  52 E9        30.32R
PHILLIPS         N/A     50  35  56 E3        30.29R
ANTIGO         MOSUNNY   51  28  40 E14       30.30S
TOMAHAWK       MOSUNNY   51  34  53 CALM      30.31R
MERRILL        MOSUNNY   52  32  47 E5        30.29F
$$

WIZ013-073-051400-
NORTHEAST WISCONSIN

CITY           SKY/WX    TMP DP  RH WIND       PRES   REMARKS
IRON MOUNTAIN  SUNNY     47  40  76 CALM      30.32R
MARINETTE      PTSUNNY   52  36  54 E12       30.33R
OCONTO         PTSUNNY   50  38  65 E6        30.34R
$$

WIZ017-030-035>037-045-051400-
CENTRAL WISCONSIN

CITY           SKY/WX    TMP DP  RH WIND       PRES   REMARKS
MEDFORD        SUNNY     50  33  53 E9        30.28S
WAUSAU         MOSUNNY   51  31  46 E7        30.28R
MOSINEE        SUNNY     50  34  53 E10       30.30R
MARSHFIELD     MOSUNNY   52  33  48 E12       30.28R
WISC RAPIDS    PTSUNNY   53  34  48 E10       30.29R
STEVENS POINT  PTSUNNY   49  35  58 E12G18    30.30S
WAUPACA        PTSUNNY   51  38  62 NE5       30.30S
SHAWANO        PTSUNNY   51  38  60 E5        30.33R
CLINTONVILLE   PTSUNNY   46  36  66 E3        30.32R
$$

WIZ038-039-048-051-051400-
FOX VALLEY

CITY           SKY/WX    TMP DP  RH WIND       PRES   REMARKS
NWS GREEN BAY  CLOUDY    51  36  56 NE12      30.32R
APPLETON       PTSUNNY   48  34  57 NE8       30.30R
OSHKOSH        CLOUDY    52  37  56 E7        30.27F
FOND DU LAC    CLOUDY    52  37  56 E6        30.27S
$$

WIZ022-050-052-051400-
EAST CENTRAL WISCONSIN

CITY           SKY/WX    TMP DP  RH WIND       PRES   REMARKS
STURGEON BAY   CLOUDY    46  34  61 E10       30.35S
MANITOWOC      CLOUDY    47  37  68 CALM      30.32R
SHEBOYGAN      CLOUDY    46  37  71 NE8       30.29R
$$

LMZ563-521-522-541>543-051400-
LAKESHORE

STATION/POSITION TIME  TEMP    WIND        PRES    VSBY  WAVE
                       AIR SEA DIR/SP/G                  HT/PER
                 (UTC) (F)     (DEG/KT/KT) (MB)    (MI)  (FT/S)
SHEBOYGAN LKSHOR 1300   44      30/  7/  9 1026.4R
KEWAUNEE LKSHORE 1300   44      30/  8/ 11 1026.0R
NORTHPORT PIER   1300   47     100/  4/  8 1027.4R
CHAMBERS ISLAND  1300   46      20/  9/ 10 1027.4R
MENOMINEE LKSHOR 1300   46      20/  8/ 10 1027.6S
$$


USA.gov is the U.S. government's official web portal to all federal, state and local government web resources and services.